STARLINK-32787 (62809 NORAD) Tracking and Keplerian Element Data

This shows tracking and keplerian element data for the satellite.

Feedback or suggestion? Click here.




ElementValue
Catalog62809
NameSTARLINK-32787
Epoch Orbit5095
Epoch Day353.89838422
Epoch Year2025
RAAN320.105
Inclination53.1616
Eccentricity0.0002048
Argument of Perigee82.0734
Mean Anonmoly278.0499
Mean Motion15.30202702
Decay Rate0.00028815
L11 62809U 25018D 25353.89838422 .00028815 00000+0 98113-3 0 9991
L22 62809 53.1616 320.1050 0002048 82.0734 278.0499 15.30202702 50958



Live tracking and technical data element details for STARLINK-32787 (NORAD 62809). STARLINK-32787 can be tracked NOW for your location showing map with azimuth and elevation plus other details from your city location.







IsCatalogInMostPopularTable: catalog: 62809, numindb: 262
Update: records affected: 1



GetName: 62809 STARLINK-32787

Hit Count: updated at: Sat, 18 Apr 2026 16:09:42 GMT